Total_Precipitation_Accumulation
0.68 0.47 0.52 0.47 0.41 0.37 0.37 0.44 0.52 0.48 0.47 0.49 0.53 0.57 0.51 0.51 0.49 0.49 0.56 0.64 0.76 0.88 0.98 1.11 1.26 1.40 1.47 1.58 1.42 1.22 1.16 1.21 1.27 1.47 1.70 1.82 1.98 2.11 2.31 2.26 2.08 1.81 1.84
0.49 0.41 0.48 0.45 0.44 0.42 0.43 0.49 0.46 0.40 0.43 0.44 0.45 0.54 0.53 0.53 0.53 0.54 0.57 0.68 0.85 1.04 1.08 1.16 1.23 1.45 1.46 1.40 1.37 1.22 1.06 1.10 1.15 1.43 1.78 2.08 2.33 2.44 2.54 2.41 2.12 2.08 1.89
0.38 0.41 0.45 0.51 0.49 0.48 0.45 0.48 0.42 0.40 0.45 0.50 0.47 0.53 0.59 0.54 0.55 0.55 0.62 0.75 0.98 1.11 1.13 1.23 1.34 1.45 1.49 1.34 1.26 1.20 1.18 1.22 1.29 1.55 1.96 2.10 2.31 2.62 2.68 2.42 2.10 1.99 1.73
0.37 0.43 0.44 0.57 0.59 0.54 0.49 0.49 0.48 0.46 0.47 0.54 0.59 0.59 0.65 0.60 0.59 0.64 0.71 0.80 1.02 1.18 1.33 1.36 1.41 1.47 1.46 1.30 1.21 1.23 1.37 1.49 1.61 1.77 2.02 1.95 1.93 2.48 2.50 2.27 2.05 1.95 1.83
0.44 0.48 0.51 0.57 0.64 0.69 0.66 0.65 0.63 0.58 0.57 0.60 0.67 0.72 0.80 0.76 0.69 0.72 0.78 0.86 1.02 1.14 1.39 1.64 1.62 1.63 1.54 1.38 1.30 1.36 1.48 1.60 1.84 2.02 2.21 2.39 2.45 2.70 2.49 2.26 2.04 1.96 1.95
0.58 0.61 0.55 0.73 0.84 0.88 0.86 0.81 0.80 0.73 0.69 0.73 0.77 0.77 0.84 0.84 0.82 0.88 0.93 1.00 1.15 1.25 1.37 1.61 1.83 1.89 1.72 1.75 1.56 1.56 1.68 1.79 1.85 1.99 2.35 2.74 2.70 2.81 2.57 2.36 2.14 2.13 2.02
0.87 0.85 0.71 0.76 0.79 0.87 0.88 0.91 0.88 0.83 0.79 0.84 0.86 0.82 0.86 0.83 0.84 0.99 1.15 1.20 1.29 1.38 1.41 1.50 1.66 1.83 1.79 2.00 1.98 1.79 1.93 2.01 1.88 2.08 2.40 2.61 2.63 2.71 2.66 2.60 2.37 2.14 1.96
1.04 0.99 0.78 0.79 0.78 0.91 0.97 0.99 0.96 0.93 0.93 0.98 0.98 0.93 0.92 0.90 0.95 1.09 1.24 1.36 1.42 1.39 1.37 1.49 1.57 1.72 1.94 2.10 2.18 2.07 2.06 2.13 1.82 1.99 2.34 2.51 2.39 2.52 2.78 2.79 2.55 2.25 1.99
1.09 1.13 0.98 0.99 0.97 1.02 1.09 1.09 1.19 1.13 1.12 1.13 1.10 1.13 1.07 1.04 1.16 1.28 1.33 1.41 1.45 1.41 1.32 1.34 1.51 1.52 1.74 1.92 2.05 2.10 2.08 2.25 2.06 2.05 2.16 2.66 2.47 2.70 2.95 2.80 2.58 2.34 2.11
1.78 1.83 1.60 1.48 1.43 1.34 1.27 1.18 1.28 1.27 1.29 1.37 1.29 1.26 1.27 1.26 1.29 1.41 1.39 1.45 1.42 1.34 1.30 1.31 1.45 1.51 1.55 1.58 1.59 1.73 1.85 1.92 1.92 1.95 2.30 2.47 2.60 3.16 3.30 3.03 2.78 2.56 2.35
2.56 2.62 2.23 1.80 1.65 1.87 1.73 1.39 1.53 1.44 1.40 1.44 1.42 1.40 1.46 1.70 1.86 1.88 1.66 1.78 1.69 1.55 1.44 1.42 1.42 1.41 1.40 1.47 1.56 1.66 1.63 1.36 1.75 2.17 2.28 2.55 2.72 3.25 3.53 3.23 2.97 2.78 2.52
2.84 2.85 2.55 2.05 2.16 2.40 2.10 2.01 1.95 1.73 1.66 1.58 1.67 1.69 1.81 2.31 2.47 2.14 2.21 2.18 2.13 1.98 1.82 1.76 1.69 1.55 1.42 1.38 1.58 1.65 1.32 1.22 1.63 2.18 2.45 2.78 3.10 3.40 3.43 3.19 3.08 2.97 2.78
2.94 2.66 2.34 2.27 2.34 2.59 2.58 2.49 2.40 2.37 2.37 2.34 2.35 2.37 2.54 2.63 2.49 2.34 2.62 2.52 2.48 2.38 2.28 2.28 2.07 1.74 1.65 1.67 1.68 1.59 1.42 1.44 1.72 1.98 2.41 2.84 3.13 3.50 3.63 3.29 3.09 3.09 2.99
2.85 2.74 2.71 2.78 2.64 2.86 3.26 3.27 3.07 3.00 2.94 2.82 2.71 2.58 2.93 3.08 2.95 2.93 3.01 2.96 3.12 3.11 3.07 2.72 2.44 2.16 2.00 1.79 1.65 1.61 1.64 1.68 1.86 2.20 2.61 2.81 3.00 3.27 3.56 3.54 3.34 3.27 3.13
3.12 2.97 2.96 3.13 3.14 3.23 3.68 3.90 3.60 3.46 3.31 3.16 2.99 2.99 3.12 3.16 3.17 3.29 3.24 3.40 3.39 3.33 3.17 2.92 2.52 2.46 2.26 2.06 1.89 1.76 1.85 1.95 2.05 2.39 2.61 2.77 2.84 3.02 3.47 3.87 3.81 3.69 3.50
3.39 3.17 3.10 3.24 3.24 3.33 3.54 3.73 3.75 3.64 3.72 3.65 3.36 3.26 3.29 3.34 3.45 3.48 3.46 3.41 3.26 3.12 3.17 3.09 2.87 2.78 2.59 2.41 2.19 2.15 2.16 2.12 2.21 2.34 2.54 2.82 2.65 2.69 3.16 3.69 4.03 4.01 3.95
3.66 3.60 3.45 3.48 3.65 3.60 3.61 3.67 3.63 3.63 3.87 3.90 3.84 3.75 3.51 3.42 3.52 3.58 3.63 3.50 3.33 3.26 3.31 3.22 3.13 3.04 2.87 2.73 2.61 2.54 2.52 2.39 2.31 2.38 2.60 2.83 2.82 2.84 3.01 3.27 3.63 3.93 4.10
4.13 4.03 3.62 3.36 3.67 3.77 3.82 3.85 3.89 3.92 4.08 4.06 3.91 3.99 3.75 3.75 3.67 3.65 3.51 3.32 3.26 3.23 3.44 3.49 3.36 3.35 3.21 3.08 3.02 2.77 2.72 2.69 2.49 2.56 2.62 2.70 3.04 3.16 3.19 3.13 3.23 3.57 3.93
4.65 4.42 3.84 3.53 3.67 3.86 3.89 4.03 4.26 4.44 4.42 4.25 4.07 4.11 3.97 4.00 3.90 3.80 3.83 3.76 3.62 3.67 3.68 3.40 3.47 3.56 3.57 3.50 3.14 2.97 2.83 2.76 2.65 2.55 2.55 2.55 2.81 3.09 3.12 3.13 3.21 3.28 3.64
4.76 4.68 4.20 3.94 4.17 4.18 4.08 4.17 4.32 4.47 4.48 4.56 4.55 4.47 4.33 4.27 4.34 4.46 4.44 4.37 4.18 4.06 4.01 4.08 4.05 3.78 3.59 3.59 3.25 3.13 2.97 2.72 2.61 2.56 2.43 2.44 2.56 2.52 2.61 2.72 3.03 3.05 3.24
3.98 4.09 4.26 4.27 4.33 4.35 4.34 4.36 4.56 4.77 4.79 4.75 4.85 4.88 4.75 4.67 4.82 5.13 5.15 5.02 4.71 4.42 4.22 4.23 4.24 4.02 3.72 3.57 3.62 3.42 3.04 2.68 2.59 2.49 2.45 2.42 2.26 2.25 2.43 2.62 2.65 2.62 2.75
3.75 3.98 4.23 4.25 4.39 4.64 5.04 5.55 5.84 5.98 5.85 5.66 5.53 5.44 5.31 5.21 5.30 5.40 5.48 5.16 4.81 4.64 4.39 4.15 4.12 3.97 3.70 3.66 3.72 3.76 3.34 3.04 2.54 2.18 2.27 2.26 2.19 2.22 2.23 2.26 2.34 2.39 2.41
3.36 3.72 4.01 4.36 4.75 5.25 5.92 6.73 7.07 6.84 6.39 6.14 5.80 5.71 5.48 5.27 5.23 5.33 5.08 4.86 4.68 4.50 4.31 4.11 4.12 4.08 3.74 3.62 3.73 3.96 3.63 3.23 2.83 2.46 2.23 2.14 2.21 2.25 2.21 2.24 2.22 2.28 2.32
2.99 3.47 3.96 4.52 5.10 5.76 6.39 6.87 7.12 7.02 6.73 6.39 5.89 5.46 5.08 4.78 4.58 4.48 4.37 4.17 4.11 4.00 3.86 3.69 3.72 3.82 3.73 3.48 3.41 3.25 3.18 3.04 2.98 2.70 2.42 2.23 2.21 2.23 2.21 2.15 2.14 2.21 2.28
2.91 3.39 3.88 4.40 5.13 5.63 6.18 6.60 6.87 6.89 6.77 6.37 5.64 4.94 4.50 4.17 3.92 3.63 3.43 3.35 3.36 3.36 3.20 3.04 3.05 3.13 3.11 3.08 3.05 2.89 2.85 2.81 2.73 2.62 2.53 2.45 2.38 2.20 2.12 2.09 2.09 2.07 2.15
2.83 3.35 3.71 4.06 4.80 5.50 6.02 6.39 6.70 6.69 6.48 5.83 5.07 4.47 4.09 3.78 3.53 3.25 3.07 2.94 2.90 2.85 2.70 2.59 2.59 2.62 2.63 2.66 2.75 2.77 2.70 2.62 2.53 2.54 2.40 2.32 2.31 2.17 2.07 2.02 1.97 1.98 2.06